Weather History for Plainview, TX

Change the Weather History Date:

Friday, August 23, 2013

  Actual Average Record
Temperature  
Mean Temperature 76 °F -  
Max Temperature 90 °F 89 °F 103 °F (1917)
Min Temperature 63 °F 64 °F 51 °F (1966)
Cooling Degree Days 12    
Growing Degree Days 26 (Base 50)    
Moisture  
Dew Point 60 °F    
Average Humidity 58    
Maximum Humidity 86    
Minimum Humidity 31    
Precipitation  
Precipitation 0.00 in - - ()
Sea Level Pressure  
Sea Level Pressure 30.10 in    
Wind  
Wind Speed 5 mph (South)    
Max Wind Speed 15 mph    
Max Gust Speed 18 mph    
Visibility 10 miles    
Events      
Averages and records for this station are not official NWS values.
T = Trace of Precipitation, MM = Missing Value Source: NWS Daily Summary

Daily Weather History Graph

Daily Weather History Graph

Search for Another Location

Airport:

Trip Planner

Search our weather history database for the weather conditions in past years. The results will help you decide how hot, cold, wet, or windy it might be!

Date:

Astronomy

Aug. 23, 2013 Rise Set
Actual Time 7:14 AM CDT 8:24 PM CDT
Civil Twilight 6:48 AM CDT 8:50 PM CDT
Nautical Twilight 6:17 AM CDT 9:20 PM CDT
Astronomical Twilight 5:45 AM CDT 9:52 PM CDT
Moon 9:56 PM CDT (8/23) 10:00 AM CDT (8/23)
Length of Visible Light 14h 01m
Length of Day
13h 09m
Waning Gibbous, 91% of the Moon is Illuminated
Aug 23
Waning Gibbous
Aug 28
Last Quarter
Sep 5
New
Sep 12
First Quarter
Sep 19
Full

Hourly Weather History & Observations

Time (CDT) Temp. Heat Index Dew Point Humidity Pressure Visibility Wind Dir Wind Speed Gust Speed Precip Events Conditions
12:15 AM 71.2 °F - 59.9 °F 67% 30.11 in 10.0 mi South 6.9 mph - N/A   Clear
12:35 AM 70.0 °F - 60.1 °F 71% 30.11 in 10.0 mi South 5.8 mph - N/A   Clear
12:55 AM 70.0 °F - 60.8 °F 73% 30.11 in 10.0 mi South 5.8 mph - N/A   Clear
1:15 AM 70.0 °F - 62.8 °F 78% 30.11 in 10.0 mi Calm Calm - N/A   Clear
1:35 AM 68.2 °F - 61.3 °F 79% 30.11 in 10.0 mi Calm Calm - N/A   Clear
1:55 AM 70.0 °F - 62.4 °F 77% 30.11 in 10.0 mi Calm Calm - N/A   Clear
2:15 AM 68.0 °F - 61.0 °F 78% 30.11 in 10.0 mi Calm Calm - N/A   Clear
2:35 AM 70.0 °F - 62.2 °F 76% 30.11 in 10.0 mi Calm Calm - N/A   Clear
2:55 AM 67.6 °F - 60.4 °F 78% 30.11 in 10.0 mi Calm Calm - N/A   Scattered Clouds
3:15 AM 67.5 °F - 61.0 °F 80% 30.11 in 10.0 mi SSE 3.5 mph - N/A   Scattered Clouds
3:35 AM 64.9 °F - 59.9 °F 84% 30.11 in 10.0 mi South 3.5 mph - N/A   Clear
3:55 AM 64.9 °F - 59.9 °F 84% 30.11 in 10.0 mi South 3.5 mph - N/A   Scattered Clouds
4:15 AM 63.9 °F - 59.0 °F 84% 30.11 in 10.0 mi Calm Calm - N/A   Scattered Clouds
4:35 AM 65.1 °F - 59.2 °F 81% 30.11 in 10.0 mi South 3.5 mph - N/A   Scattered Clouds
4:55 AM 64.9 °F - 59.4 °F 82% 30.11 in 10.0 mi Calm Calm - N/A   Clear
5:15 AM 64.9 °F - 59.5 °F 83% 30.10 in 10.0 mi South 3.5 mph - N/A   Clear
5:35 AM 64.9 °F - 59.7 °F 83% 30.10 in 10.0 mi South 3.5 mph - N/A   Clear
5:55 AM 64.9 °F - 59.7 °F 83% 30.10 in 10.0 mi SSW 4.6 mph - N/A   Clear
6:15 AM 64.9 °F - 59.7 °F 83% 30.10 in 10.0 mi South 5.8 mph - N/A   Clear
6:35 AM 66.4 °F - 60.6 °F 82% 30.10 in 10.0 mi SSW 6.9 mph - N/A   Clear
6:55 AM 64.9 °F - 59.9 °F 84% 30.10 in 10.0 mi SSW 3.5 mph - N/A   Clear
7:15 AM 63.7 °F - 59.0 °F 85% 30.11 in 10.0 mi SSW 4.6 mph - N/A   Clear
7:35 AM 63.3 °F - 59.2 °F 86% 30.12 in 10.0 mi SSW 3.5 mph - N/A   Clear
7:55 AM 64.9 °F - 59.9 °F 84% 30.12 in 10.0 mi Calm Calm - N/A   Clear
8:15 AM 68.9 °F - 62.4 °F 80% 30.13 in 10.0 mi Calm Calm - N/A   Clear
8:35 AM 70.0 °F - 61.9 °F 75% 30.13 in 10.0 mi Calm Calm - N/A   Clear
8:55 AM 72.5 °F - 63.0 °F 72% 30.13 in 10.0 mi SSW 3.5 mph - N/A   Clear
9:15 AM 75.2 °F - 63.1 °F 66% 30.14 in 10.0 mi SSW 3.5 mph - N/A   Clear
9:35 AM 77.4 °F - 63.5 °F 62% 30.13 in 10.0 mi SSW 4.6 mph - N/A   Clear
9:55 AM 78.4 °F - 61.7 °F 56% 30.13 in 10.0 mi SW 5.8 mph - N/A   Clear
10:15 AM 80.1 °F 81.5 °F 63.0 °F 56% 30.13 in 10.0 mi SSW 6.9 mph - N/A   Clear
10:35 AM 81.1 °F 82.1 °F 62.1 °F 52% 30.14 in 10.0 mi SSW 6.9 mph - N/A   Clear
10:55 AM 82.2 °F 82.9 °F 61.3 °F 49% 30.14 in 10.0 mi SW 6.9 mph - N/A   Clear
11:15 AM 83.1 °F 83.2 °F 59.5 °F 45% 30.15 in 10.0 mi SSW 8.1 mph - N/A   Clear
11:35 AM 84.0 °F 84.2 °F 60.3 °F 45% 30.15 in 10.0 mi SSW 6.9 mph - N/A   Clear
11:55 AM 84.6 °F 84.6 °F 60.6 °F 44% 30.15 in 10.0 mi WSW 5.8 mph - N/A   Clear
12:15 PM 87.8 °F 87.6 °F 61.0 °F 40% 30.15 in 10.0 mi South 9.2 mph - N/A   Scattered Clouds
12:35 PM 87.8 °F 87.6 °F 60.8 °F 40% 30.14 in 10.0 mi SW 5.8 mph - N/A   Clear
12:55 PM 86.5 °F 85.6 °F 58.3 °F 38% 30.13 in 10.0 mi SW 6.9 mph 16.1 mph N/A   Scattered Clouds
1:15 PM 90.1 °F 89.9 °F 60.8 °F 37% 30.13 in 10.0 mi South 11.5 mph - N/A   Mostly Cloudy
1:35 PM 88.0 °F 87.4 °F 59.5 °F 38% 30.12 in 10.0 mi South 11.5 mph 17.3 mph N/A   Scattered Clouds
1:55 PM 88.7 °F 88.3 °F 60.3 °F 38% 30.11 in 10.0 mi SSW 10.4 mph - N/A   Scattered Clouds
2:15 PM 88.7 °F 88.3 °F 59.9 °F 38% 30.11 in 10.0 mi SSE 10.4 mph - N/A   Mostly Cloudy
2:35 PM 88.5 °F 87.5 °F 58.6 °F 36% 30.11 in 10.0 mi South 11.5 mph 16.1 mph N/A   Mostly Cloudy
2:55 PM 90.1 °F 89.1 °F 58.6 °F 34% 30.10 in 10.0 mi South 15.0 mph 18.4 mph N/A   Mostly Cloudy
3:15 PM 90.1 °F 88.3 °F 56.1 °F 31% 30.09 in 10.0 mi South 10.4 mph 16.1 mph N/A   Scattered Clouds
3:35 PM 90.1 °F 89.3 °F 59.2 °F 35% 30.08 in 10.0 mi South 11.5 mph 17.3 mph N/A   Clear
3:55 PM 90.1 °F 89.1 °F 57.9 °F 34% 30.07 in 10.0 mi SSW 9.2 mph - N/A   Clear
4:15 PM 90.1 °F 89.1 °F 58.1 °F 34% 30.06 in 10.0 mi SSW 9.2 mph 17.3 mph N/A   Clear
4:35 PM 90.1 °F 88.6 °F 56.8 °F 32% 30.05 in 10.0 mi SSE 5.8 mph - N/A   Clear
4:55 PM 90.1 °F 88.8 °F 57.6 °F 33% 30.04 in 10.0 mi SSE 9.2 mph - N/A   Clear
5:15 PM 90.1 °F 88.8 °F 57.0 °F 33% 30.05 in 10.0 mi South 9.2 mph 16.1 mph N/A   Clear
5:35 PM 90.1 °F 89.3 °F 58.8 °F 35% 30.04 in 10.0 mi South 11.5 mph - N/A   Clear
5:55 PM 90.1 °F 89.1 °F 58.3 °F 34% 30.04 in 10.0 mi South 11.5 mph - N/A   Clear
6:15 PM 90.1 °F 89.3 °F 59.0 °F 35% 30.04 in 10.0 mi South 8.1 mph - N/A   Clear
6:35 PM 90.1 °F 89.3 °F 59.4 °F 35% 30.04 in 10.0 mi South 9.2 mph - N/A   Clear
6:55 PM 87.8 °F 86.7 °F 57.6 °F 36% 30.04 in 10.0 mi South 6.9 mph - N/A   Clear
7:15 PM 87.6 °F 86.9 °F 59.0 °F 38% 30.04 in 10.0 mi South 10.4 mph - N/A   Clear
7:35 PM 84.6 °F 83.9 °F 57.6 °F 40% 30.04 in 10.0 mi South 6.9 mph - N/A   Clear
7:55 PM 83.5 °F 83.1 °F 57.9 °F 42% 30.04 in 10.0 mi South 6.9 mph - N/A   Clear
8:15 PM 82.0 °F 81.8 °F 57.7 °F 43% 30.04 in 10.0 mi South 5.8 mph - N/A   Clear
8:35 PM 80.1 °F 80.6 °F 58.1 °F 47% 30.05 in 10.0 mi South 4.6 mph - N/A   Clear
8:55 PM 77.5 °F - 59.5 °F 54% 30.05 in 10.0 mi South 4.6 mph - N/A   Clear
9:15 PM 77.5 °F - 60.6 °F 56% 30.07 in 10.0 mi SSE 8.1 mph - N/A   Scattered Clouds
9:35 PM 77.2 °F - 61.3 °F 58% 30.07 in 10.0 mi SSE 6.9 mph - N/A   Scattered Clouds
9:55 PM 75.2 °F - 60.1 °F 59% 30.08 in 10.0 mi SSE 6.9 mph - N/A   Clear
10:15 PM 75.2 °F - 60.8 °F 61% 30.08 in 10.0 mi South 6.9 mph - N/A   Clear
10:35 PM 76.1 °F - 61.2 °F 60% 30.09 in 10.0 mi South 8.1 mph - N/A   Mostly Cloudy
10:55 PM 76.3 °F - 61.3 °F 60% 30.09 in 10.0 mi South 9.2 mph - N/A   Scattered Clouds
11:15 PM 75.2 °F - 61.0 °F 61% 30.09 in 10.0 mi South 6.9 mph - N/A   Scattered Clouds
11:35 PM 75.2 °F - 61.9 °F 63% 30.09 in 10.0 mi SSW 5.8 mph - N/A   Clear
11:55 PM 75.2 °F - 62.2 °F 64% 30.09 in 10.0 mi South 4.6 mph - N/A   Clear